This is the latest recevied weather packets stored in our database for station/object W2TAO. If no packets are shown the sender has not sent any weather packets the latest 10 day(s).
| Time | Temp. | Humidity | Pressure | Rain* | Wind** | Luminosity | Snow |
|---|---|---|---|---|---|---|---|
| 1777493548 | 16.67° C | 61% | 1012 hPa | 0 mm | - | 200 W/m² | - |
| 1777493240 | 16.11° C | 59% | 1012 hPa | 0 mm | - | 233 W/m² | - |
| 1777492936 | 16.11° C | 61% | 1012.3 hPa | 0 mm | - | 240 W/m² | - |
| 1777492632 | 15.56° C | 61% | 1012.5 hPa | 0 mm | - | 258 W/m² | - |
| 1777492327 | 15.56° C | 61% | 1012.4 hPa | 0 mm | - | 221 W/m² | - |
| 1777492025 | 15.56° C | 64% | 1012.6 hPa | 0 mm | - | 162 W/m² | - |
| 1777491722 | 15.56° C | 64% | 1012.6 hPa | 0 mm | - | 129 W/m² | - |
| 1777491419 | 15.56° C | 61% | 1012.8 hPa | 0 mm | - | 140 W/m² | - |
| 1777491116 | 15.56° C | 64% | 1012.6 hPa | 0 mm | - | 152 W/m² | - |
| 1777490811 | 15.56° C | 61% | 1012.7 hPa | 0 mm | - | 143 W/m² | - |
| 1777490508 | 16.11° C | 61% | 1012.9 hPa | 0 mm | - | 219 W/m² | - |
| 1777490204 | 16.11° C | 63% | 1012.9 hPa | 0 mm | - | 270 W/m² | - |
| 1777489901 | 16.11° C | 62% | 1013 hPa | 0 mm | - | 198 W/m² | - |
| 1777489599 | 15.56° C | 63% | 1013.2 hPa | 0 mm | - | 254 W/m² | - |
| 1777489295 | 16.11° C | 62% | 1013.1 hPa | 0 mm | - | 216 W/m² | - |
| 1777488993 | 15.56° C | 63% | 1013.3 hPa | 0 mm | - | 259 W/m² | - |
| 1777488690 | 15° C | 64% | 1013.4 hPa | 0 mm | - | 293 W/m² | - |
| 1777488387 | 15° C | 63% | 1013.5 hPa | 0 mm | - | 190 W/m² | - |
| 1777488085 | 15° C | 65% | 1013.6 hPa | 0 mm | - | 135 W/m² | - |
| 1777487783 | 15° C | 66% | 1013.5 hPa | 0 mm | - | 116 W/m² | - |
| 1777487481 | 15.56° C | 65% | 1013.3 hPa | 0 mm | - | 198 W/m² | - |
| 1777487178 | 15.56° C | 63% | 1013.6 hPa | 0 mm | - | 247 W/m² | - |
| 1777486874 | 15° C | 64% | 1013.7 hPa | 0 mm | - | 240 W/m² | - |
| 1777486571 | 15° C | 63% | 1013.7 hPa | 0 mm | - | 207 W/m² | - |
| 1777486269 | 14.44° C | 65% | 1013.6 hPa | 0 mm | - | 234 W/m² | - |
* Rain latest hour (hover to see other rain measurements)
** Current wind speed in m/s (hover to see current wind gust speed)